Location: Garbet
(42.8837°N, 1.2115°E)
Time: 02:24:35
(UTC+00:00)

Meteor 2-11 Rocket - Pass Details

Date: 13 December 2025
Orbit: 939 x 957 km, 82.5° (Epoch: 17 January)

Event Time Altitude Azimuth Distance (km) Brightness Sun altitude
Rises 18:27:33 0° 353° (N) 3,646 7.5 -22.3°
Reaches altitude 10° 18:30:04 10° 355° (N) 2,695 6.7 -22.7°
Maximum altitude 18:36:15 75° 81° (E) 990 4.3 -23.8°
Drops below altitude 10° 18:42:22 10° 167° (SSE) 2,669 6.7 -24.9°
Sets 18:44:51 0° 169° (SSE) 3,608 7.5 -25.4°
